Location: Olomouc
(49.5830°N, 17.2500°E)
Time: 20:14:14
(UTC+02:00)

ISS - Pass Details

Date: 10 May 2021
Orbit: 417 x 422 km, 51.6° (Epoch: 14 June)

Event Time Altitude Azimuth Distance (km) Brightness Sun altitude
Exits shadow 02:48:52 21° 282° (WNW) 1,022 -2.0 -17.6°
Maximum altitude 02:50:58 59° 357° (N) 495 -3.2 -17.4°
Drops below altitude 10° 02:54:19 10° 78° (ENE) 1,510 -0.3 -17.2°
Sets 02:56:27 0° 82° (E) 2,376 0.7 -17.0°
